Orbital Elements
Epoch 2008 Apr. 4.0 TT = JDT 2454560.5
T 2008 Apr. 10.94427 TT MPC
q 2.0035177 (2000.0) P Q
z -0.0011756 Peri. 10.70318 +0.57979905 +0.52488070
+/-0.0000023 Node 298.17918 -0.78998408 +0.17497866
e 1.0023553 Incl. 44.98777 -0.19939462 +0.83299623
From 337 observations 2007 Aug. 24-2008 Dec. 7, mean residual 0".6.
|